DW9246 Weather Reports


time (UTC)temp
C
wind
direction
speed
KPH
gust
KPH
rain 1hr
cm
rain 24hr
cm
rain mn
cm
humidity
%
barometer
mb
20190421124011 16 71 16.1 29.0 0.00 0.79 0.00 55 1010.8
20190421123011 15 67 14.5 27.4 0.00 0.79 0.00 55 1010.9
20190421122011 15 71 11.3 20.9 0.00 0.79 0.00 59 1011.0
20190421121012 15 62 14.5 27.4 0.00 0.79 0.00 60 1011.3
20190421120011 15 55 16.1 29.0 0.00 0.79 0.00 61 1011.3
20190421115011 15 54 14.5 25.7 0.00 0.79 0.00 62 1011.5
20190421114011 15 64 12.9 24.1 0.00 0.79 0.00 62 1011.7
20190421113011 15 61 9.7 22.5 0.00 0.79 0.00 63 1011.9
20190421112011 15 71 11.3 22.5 0.00 0.79 0.00 62 1012.1
20190421111011 15 62 9.7 22.5 0.00 0.79 0.00 62 1012.1
20190421110011 15 68 11.3 22.5 0.00 0.79 0.00 63 1012.3
20190421105011 15 78 12.9 22.5 0.00 0.79 0.00 62 1012.3
20190421104011 15 71 11.3 22.5 0.00 0.79 0.00 62 1012.5
20190421103011 15 74 9.7 20.9 0.00 0.79 0.00 62 1012.7
20190421102011 15 75 16.1 30.6 0.00 0.79 0.00 61 1012.7
20190421101011 15 80 16.1 29.0 0.00 0.79 0.00 60 1012.7
20190421100011 15 72 16.1 29.0 0.00 0.79 0.00 59 1012.6
20190421095021 15 75 19.3 35.4 0.00 0.79 0.00 59 1012.5
20190421094011 15 81 19.3 35.4 0.00 0.79 0.00 59 1012.7
20190421093011 15 78 17.7 35.4 0.00 0.79 0.00 57 1012.7
20190421092011 15 72 12.9 29.0 0.00 0.79 0.00 57 1012.6
20190421091010 15 47 16.1 33.8 0.00 0.79 0.00 57 1012.7
20190421090011 15 46 16.1 33.8 0.00 0.79 0.00 56 1012.7
20190421085011 15 45 19.3 35.4 0.00 0.79 0.00 55 1012.6
20190421084011 15 42 17.7 32.2 0.00 0.79 0.00 55 1012.4
20190421083011 15 39 19.3 35.4 0.00 0.79 0.00 55 1012.4
20190421082012 15 35 12.9 25.7 0.00 0.79 0.00 54 1012.4
20190421081012 15 41 14.5 29.0 0.00 0.79 0.00 55 1012.3
20190421080011 14 40 16.1 32.2 0.00 0.79 0.00 55 1012.6
20190421075013 14 39 16.1 30.6 0.00 0.79 0.00 55 1012.7
20190421073014 14 36 16.1 35.4 0.00 0.79 0.00 55 1012.7
20190421072011 14 35 16.1 30.6 0.00 0.79 0.00 55 1012.6
20190421071011 14 35 17.7 35.4 0.00 0.79 0.00 55 1012.8
20190421070012 14 34 16.1 33.8 0.00 0.79 0.00 57 1012.9
20190421065011 14 33 16.1 27.4 0.00 0.79 0.00 58 1012.7
20190421064010 14 35 19.3 38.6 0.00 0.79 0.00 58 1012.9
20190421063011 13 35 19.3 35.4 0.00 0.79 0.00 59 1012.9
20190421062011 13 44 19.3 35.4 0.00 0.79 0.00 59 1013.0
20190421061013 13 45 17.7 37.0 0.00 0.79 0.00 59 1013.1
20190421060012 13 43 17.7 30.6 0.00 0.79 0.00 59 1013.2
20190421055011 13 43 17.7 45.1 0.00 0.79 0.00 59 1013.2
20190421054011 13 42 19.3 33.8 0.00 0.79 0.00 59 1013.2
20190421053011 13 41 20.9 43.5 0.00 0.79 0.00 59 1013.1
20190421052011 13 39 22.5 43.5 0.00 0.79 0.00 58 1013.1
20190421051010 13 37 22.5 45.1 0.00 0.79 0.00 59 1013.1
20190421050011 13 34 20.9 45.1 0.00 0.79 0.00 59 1013.0
20190421045010 13 40 20.9 37.0 0.00 0.79 0.00 59 1013.1
20190421044010 13 41 17.7 35.4 0.00 0.79 0.00 58 1013.3
20190421043010 13 39 19.3 33.8 0.00 0.79 0.00 58 1013.3
20190421042011 13 38 24.1 41.8 0.00 0.79 0.00 58 1013.4
20190421041011 14 37 22.5 43.5 0.00 0.79 0.00 56 1013.3
20190421040010 14 32 20.9 41.8 0.00 0.79 0.00 56 1013.3
20190421035011 14 32 20.9 41.8 0.00 0.79 0.00 55 1013.2
20190421034011 14 36 22.5 49.9 0.00 0.79 0.00 56 1013.3
20190421033010 14 31 22.5 41.8 0.00 0.79 0.00 57 1013.5
20190421032010 13 25 20.9 43.5 0.00 0.79 0.00 57 1013.5
20190421031010 13 25 25.7 46.7 0.00 0.79 0.00 58 1013.6
20190421030010 13 26 22.5 37.0 0.00 0.79 0.00 58 1014.0
20190421025010 13 26 22.5 41.8 0.00 0.79 0.00 60 1014.2
20190421024010 13 39 17.7 35.4 0.00 0.79 0.00 60 1014.3
20190421023011 13 31 19.3 33.8 0.00 0.79 0.00 61 1014.4
20190421022010 13 21 22.5 46.7 0.00 0.79 0.00 60 1014.4
20190421021010 13 21 20.9 41.8 0.00 0.79 0.00 60 1014.5
20190421020026 13 24 19.3 37.0 0.00 0.79 0.00 60 1014.6
20190421015009 13 16 19.3 32.2 0.00 0.79 0.00 63 1014.7
20190421014011 12 10 20.9 40.2 0.00 0.79 0.00 66 1014.9
20190421013009 12 26 24.1 49.9 0.00 0.79 0.00 65 1015.1
20190421012010 12 26 27.4 46.7 0.00 0.79 0.00 64 1015.4
20190421011010 13 28 29.0 51.5 0.00 0.79 0.00 62 1015.6
20190421010038 13 26 24.1 46.7 0.00 0.79 0.00 63 1015.6
20190421005031 13 28 24.1 46.7 0.00 0.79 0.00 64 1015.7
20190421004032 13 27 27.4 48.3 0.00 0.79 0.00 63 1016.1
20190421003031 13 26 25.7 53.1 0.00 0.79 0.00 62 1016.0
20190421002031 13 23 22.5 38.6 0.00 0.79 0.00 64 1016.1
20190421001031 13 21 24.1 43.5 0.00 0.79 0.00 64 1016.4
20190421000033 13 26 20.9 37.0 0.00 0.79 0.00 64 1016.9
20190420235032 12 28 20.9 41.8 0.00 0.79 0.79 64 1017.3
20190420234032 13 29 17.7 38.6 0.00 0.79 0.79 64 1017.3
20190420233031 13 35 19.3 43.5 0.00 0.79 0.79 63 1017.5
20190420232031 13 34 20.9 38.6 0.00 0.79 0.79 63 1017.4
20190420231031 13 32 19.3 46.7 0.00 0.79 0.79 63 1017.3
20190420230031 13 28 24.1 48.3 0.00 0.79 0.79 63 1017.3
20190420225032 13 27 25.7 46.7 0.00 0.79 0.79 63 1017.2
20190420224031 13 30 20.9 33.8 0.00 0.79 0.79 64 1017.5
20190420223031 12 24 22.5 46.7 0.00 0.79 0.79 66 1017.8
20190420222031 12 26 22.5 38.6 0.03 0.79 0.79 67 1018.0
20190420221032 12 28 25.7 49.9 0.03 0.79 0.79 66 1018.1
20190420220031 12 25 27.4 48.3 0.03 0.79 0.79 67 1018.2
20190420215030 12 28 24.1 46.7 0.03 0.79 0.79 69 1018.5
20190420214031 12 23 25.7 51.5 0.03 0.79 0.79 69 1018.6
20190420213031 12 19 24.1 41.8 0.03 0.79 0.79 70 1018.4
20190420212031 12 21 29.0 51.5 0.03 0.79 0.79 70 1018.5
20190420211032 12 19 30.6 46.7 0.03 0.79 0.79 71 1018.5
20190420210031 11 18 27.4 49.9 0.05 0.79 0.79 75 1018.5
20190420205031 11 14 27.4 49.9 0.10 0.79 0.79 75 1018.3
20190420204031 11 14 25.7 51.5 0.13 0.79 0.79 76 1018.4
20190420203031 11 18 30.6 59.5 0.13 0.79 0.79 74 1018.8
20190420202031 11 22 32.2 54.7 0.15 0.76 0.76 75 1018.9
20190420201031 11 23 32.2 54.7 0.20 0.76 0.76 77 1019.1
20190420200031 11 26 32.2 61.2 0.23 0.71 0.71 77 1019.2
20190420195031 11 27 37.0 69.2 0.23 0.69 0.69 75 1019.3
20190420194031 11 21 32.2 61.2 0.25 0.66 0.66 77 1019.2
20190420193031 11 25 30.6 51.5 0.30 0.66 0.66 78 1019.2
20190420192032 11 28 29.0 51.5 0.33 0.61 0.61 77 1019.5
20190420191031 11 30 24.1 41.8 0.30 0.53 0.56 77 1019.4
20190420190031 11 26 24.1 43.5 0.30 0.51 0.51 76 1019.5
20190420185031 11 30 22.5 43.5 0.28 0.43 0.46 75 1019.5
20190420184031 11 29 22.5 43.5 0.25 0.41 0.41 75 1019.4
20190420183032 11 30 22.5 41.8 0.23 0.33 0.33 75 1019.6
20190420182031 11 30 22.5 41.8 0.15 0.28 0.28 73 1019.4
20190420181030 11 30 20.9 38.6 0.15 0.23 0.23 73 1019.5
20190420180032 12 29 20.9 35.4 0.10 0.20 0.20 71 1019.4
20190420175030 12 28 22.5 41.8 0.10 0.15 0.15 71 1019.2
20190420174032 12 25 24.1 40.2 0.10 0.15 0.15 69 1019.0
20190420173032 12 34 24.1 46.7 0.10 0.13 0.13 67 1019.2
20190420172032 12 29 22.5 46.7 0.10 0.13 0.13 67 1018.9
20190420171031 12 34 20.9 43.5 0.08 0.10 0.10 69 1019.2
20190420170031 12 41 17.7 37.0 0.08 0.10 0.10 69 1019.2
20190420165031 13 53 16.1 29.0 0.05 0.05 0.05 69 1019.3
20190420164031 13 56 16.1 32.2 0.03 0.05 0.05 67 1019.3
20190420163032 13 58 16.1 27.4 0.00 0.03 0.03 66 1019.0
20190420162032 14 55 16.1 32.2 0.03 0.03 0.03 65 1018.8
20190420161032 14 58 19.3 30.6 0.03 0.03 0.03 62 1018.6
20190420160033 14 60 19.3 35.4 0.03 0.03 0.03 62 1018.5
20190420155031 15 73 16.1 32.2 0.03 0.03 0.03 61 1018.7
20190420154032 15 73 12.9 27.4 0.03 0.03 0.03 58 1018.5
20190420153031 15 83 11.3 22.5 0.03 0.03 0.03 64 1018.3
20190420152031 15 83 12.9 25.7 0.00 0.00 0.00 60 1018.4
20190420151032 16 80 16.1 32.2 0.00 0.00 0.00 55 1018.1
20190420150032 17 76 16.1 40.2 0.00 0.00 0.00 48 1018.0
20190420145030 17 76 17.7 32.2 0.00 0.00 0.00 45 1018.1
20190420144031 17 74 19.3 35.4 0.00 0.00 0.00 45 1017.9
20190420143031 17 71 17.7 33.8 0.00 0.00 0.00 46 1018.1
20190420142030 17 81 20.9 38.6 0.00 0.00 0.00 45 1018.3
20190420141030 17 79 22.5 37.0 0.00 0.00 0.00 46 1018.5
20190420140031 17 85 17.7 37.0 0.00 0.00 0.00 46 1018.7
20190420135031 17 81 17.7 32.2 0.00 0.00 0.00 46 1018.8
20190420134031 17 85 19.3 33.8 0.00 0.00 0.00 46 1018.8
20190420133031 17 75 22.5 40.2 0.00 0.00 0.00 46 1018.9
20190420132030 17 68 16.1 32.2 0.00 0.00 0.00 46 1018.9
20190420131031 17 65 20.9 35.4 0.00 0.00 0.00 47 1019.0
20190420130032 17 72 20.9 37.0 0.00 0.00 0.00 47 1019.1
20190420125031 17 65 22.5 40.2 0.00 0.00 0.00 46 1019.1